| time (UTC) | temp F | wind direction | speed MPH | gust MPH | rain 1hr in | rain 24hr in | rain mn in | humidity % | barometer mb |
| 20260901044558 | 67 | 171 | 0.0 | 2.0 | 0.00 | 0.01 | 0.00 | 90 | 1021.1 |
| 20260901043101 | 67 | 173 | 1.0 | 2.0 | 0.00 | 0.01 | 0.00 | 90 | 1021.2 |
| 20260901041600 | 67 | 174 | 0.0 | 0.0 | 0.00 | 0.01 | 0.00 | 90 | 1021.1 |
| 20260901040104 | 68 | 173 | 0.0 | 2.0 | 0.00 | 0.01 | 0.00 | 90 | 1021.2 |
| 20260901034555 | 68 | 170 | 0.0 | 1.0 | 0.00 | 0.02 | 0.01 | 90 | 1021.2 |
| 20260901033058 | 68 | 167 | 0.0 | 2.0 | 0.00 | 0.02 | 0.01 | 90 | 1021.2 |
| 20260901031608 | 68 | 169 | 0.0 | 2.0 | 0.00 | 0.02 | 0.01 | 90 | 1021.3 |
| 20260901030056 | 68 | 169 | 1.0 | 2.0 | 0.00 | 0.02 | 0.01 | 90 | 1021.1 |
| 20260901024555 | 68 | 170 | 0.0 | 3.0 | 0.00 | 0.02 | 0.01 | 90 | 1021.2 |
| 20260901023051 | 69 | 170 | 1.0 | 3.0 | 0.00 | 0.02 | 0.01 | 90 | 1021.5 |
| 20260901021551 | 69 | 202 | 0.0 | 4.0 | 0.00 | 0.02 | 0.01 | 90 | 1021.4 |
| 20260901020051 | 68 | 202 | 0.0 | 3.0 | 0.00 | 0.02 | 0.01 | 90 | 1021.6 |
| 20260901014550 | 68 | 217 | 1.0 | 3.0 | 0.00 | 0.02 | 0.01 | 90 | 1021.7 |
| 20260901013052 | 68 | 216 | 1.0 | 3.0 | 0.00 | 0.02 | 0.01 | 90 | 1021.7 |
| 20260901011549 | 69 | 304 | 1.0 | 3.0 | 0.00 | 0.02 | 0.01 | 90 | 1021.9 |
| 20260901010048 | 69 | 304 | 1.0 | 3.0 | 0.00 | 0.02 | 0.01 | 89 | 1021.6 |
| 20260901004548 | 69 | 233 | 0.0 | 2.0 | 0.00 | 0.02 | 0.01 | 89 | 1021.5 |
| 20260901003047 | 68 | 233 | 0.0 | 3.0 | 0.00 | 0.02 | 0.01 | 89 | 1021.3 |
| 20260901001546 | 68 | 233 | 0.0 | 2.0 | 0.00 | 0.02 | 0.01 | 89 | 1021.2 |
| 20260901000045 | 68 | 232 | 1.0 | 2.0 | 0.00 | 0.02 | 0.01 | 89 | 1021.3 |
| 20260831234545 | 69 | 232 | 0.0 | 1.0 | 0.00 | 0.02 | 0.01 | 89 | 1021.3 |
| 20260831233043 | 69 | 230 | 0.0 | 1.0 | 0.00 | 0.02 | 0.01 | 89 | 1021.5 |
| 20260831231542 | 69 | 229 | 1.0 | 2.0 | 0.00 | 0.02 | 0.01 | 89 | 1021.5 |
| 20260831230058 | 69 | 229 | 0.0 | 2.0 | 0.01 | 0.02 | 0.01 | 89 | 1021.7 |
| 20260831224540 | 69 | 230 | 0.0 | 3.0 | 0.01 | 0.02 | 0.01 | 89 | 1021.9 |
| 20260831223038 | 69 | 231 | 1.0 | 2.0 | 0.01 | 0.02 | 0.01 | 89 | 1022.1 |
| 20260831221544 | 69 | 229 | 1.0 | 3.0 | 0.01 | 0.02 | 0.01 | 89 | 1022.2 |
| 20260831220036 | 69 | 231 | 0.0 | 2.0 | 0.00 | 0.01 | 0.00 | 89 | 1022.3 |
| 20260831214537 | 69 | 228 | 1.0 | 3.0 | 0.00 | 0.01 | 0.00 | 88 | 1022.3 |
| 20260831213036 | 69 | 226 | 0.0 | 2.0 | 0.00 | 0.01 | 0.00 | 88 | 1022.5 |
| 20260831211537 | 69 | 226 | 0.0 | 2.0 | 0.00 | 0.01 | 0.00 | 88 | 1022.5 |
| 20260831210033 | 69 | 223 | 0.0 | 2.0 | 0.00 | 0.01 | 0.00 | 88 | 1022.4 |
| 20260831204534 | 69 | 224 | 0.0 | 2.0 | 0.00 | 0.01 | 0.00 | 88 | 1022.4 |
| 20260831203035 | 69 | 224 | 0.0 | 2.0 | 0.00 | 0.01 | 0.00 | 88 | 1022.3 |
| 20260831201532 | 69 | 223 | 1.0 | 2.0 | 0.00 | 0.01 | 0.00 | 88 | 1022.4 |
| 20260831200035 | 69 | 223 | 1.0 | 4.0 | 0.00 | 0.01 | 0.00 | 87 | 1022.7 |
| 20260831194558 | 69 | 192 | 1.0 | 3.0 | 0.00 | 0.01 | 0.00 | 87 | 1022.4 |
| 20260831193028 | 69 | 216 | 3.0 | 6.0 | 0.00 | 0.01 | 0.00 | 87 | 1022.7 |
| 20260831191525 | 69 | 203 | 1.0 | 4.0 | 0.00 | 0.01 | 0.00 | 88 | 1022.9 |
| 20260831190025 | 68 | 155 | 0.0 | 4.0 | 0.00 | 0.01 | 0.00 | 88 | 1023.3 |
| 20260831184539 | 68 | 227 | 2.0 | 3.0 | 0.00 | 0.01 | 0.00 | 88 | 1023.4 |
| 20260831183022 | 68 | 234 | 1.0 | 4.0 | 0.00 | 0.01 | 0.00 | 88 | 1023.5 |
| 20260831181527 | 68 | 157 | 0.0 | 5.0 | 0.00 | 0.01 | 0.00 | 88 | 1023.8 |
| 20260831180024 | 67 | 140 | 2.0 | 7.0 | 0.00 | 0.01 | 0.00 | 87 | 1023.9 |
| 20260831174520 | 67 | 117 | 0.0 | 5.0 | 0.00 | 0.01 | 0.00 | 87 | 1023.9 |
| 20260831173020 | 67 | 182 | 0.0 | 3.0 | 0.00 | 0.01 | 0.00 | 87 | 1024.2 |
| 20260831171537 | 66 | 218 | 0.0 | 2.0 | 0.00 | 0.01 | 0.00 | 86 | 1024.3 |
| 20260831170045 | 66 | 215 | 1.0 | 4.0 | 0.00 | 0.01 | 0.00 | 86 | 1024.7 |
| 20260831164520 | 66 | 218 | 2.0 | 5.0 | 0.00 | 0.01 | 0.00 | 85 | 1024.6 |
| 20260831163018 | 67 | 209 | 1.0 | 3.0 | 0.00 | 0.01 | 0.00 | 84 | 1024.6 |
| 20260831161517 | 67 | 204 | 1.0 | 8.0 | 0.00 | 0.01 | 0.00 | 81 | 1024.8 |
| 20260831160028 | 70 | 271 | 2.0 | 4.0 | 0.00 | 0.01 | 0.00 | 79 | 1024.7 |
| 20260831154517 | 71 | 242 | 1.0 | 4.0 | 0.00 | 0.01 | 0.00 | 77 | 1024.3 |
| 20260831153015 | 71 | 219 | 1.0 | 7.0 | 0.00 | 0.01 | 0.00 | 77 | 1024.3 |
| 20260831151514 | 70 | 26 | 1.0 | 3.0 | 0.00 | 0.01 | 0.00 | 78 | 1024.5 |
| 20260831150014 | 70 | 34 | 1.0 | 2.0 | 0.00 | 0.01 | 0.00 | 80 | 1024.3 |
| 20260831144523 | 70 | 35 | 0.0 | 2.0 | 0.00 | 0.01 | 0.00 | 80 | 1024.4 |
| 20260831143010 | 69 | 40 | 2.0 | 4.0 | 0.00 | 0.01 | 0.00 | 81 | 1024.3 |
| 20260831141512 | 69 | 44 | 0.0 | 3.0 | 0.00 | 0.01 | 0.00 | 82 | 1024.5 |
| 20260831140008 | 68 | 44 | 0.0 | 5.0 | 0.00 | 0.01 | 0.00 | 84 | 1024.3 |
| 20260831134507 | 67 | 76 | 3.0 | 6.0 | 0.00 | 0.01 | 0.00 | 85 | 1024.2 |
| 20260831133008 | 67 | 34 | 0.0 | 4.0 | 0.00 | 0.01 | 0.00 | 86 | 1024.5 |
| 20260831131507 | 66 | 49 | 2.0 | 5.0 | 0.00 | 0.01 | 0.00 | 87 | 1024.6 |
| 20260831130004 | 66 | 63 | 2.0 | 5.0 | 0.00 | 0.01 | 0.00 | 87 | 1024.6 |
| 20260831124506 | 65 | 67 | 2.0 | 3.0 | 0.00 | 0.01 | 0.00 | 88 | 1024.7 |
| 20260831123005 | 65 | 67 | 1.0 | 4.0 | 0.00 | 0.01 | 0.00 | 88 | 1024.4 |
| 20260831121509 | 64 | 185 | 0.0 | 2.0 | 0.00 | 0.01 | 0.00 | 88 | 1024.8 |
| 20260831120002 | 64 | 185 | 0.0 | 1.0 | 0.00 | 0.01 | 0.00 | 88 | 1025.0 |
| 20260831114501 | 64 | 186 | 0.0 | 1.0 | 0.00 | 0.01 | 0.00 | 88 | 1024.8 |
| 20260831113103 | 64 | 184 | 1.0 | 3.0 | 0.00 | 0.01 | 0.00 | 87 | 1024.7 |
| 20260831111609 | 64 | 184 | 0.0 | 2.0 | 0.00 | 0.01 | 0.00 | 87 | 1024.7 |
| 20260831110059 | 64 | 172 | 0.0 | 1.0 | 0.00 | 0.01 | 0.00 | 87 | 1024.5 |
| 20260831104559 | 63 | 163 | 0.0 | 2.0 | 0.00 | 0.01 | 0.00 | 87 | 1024.1 |
| 20260831103107 | 63 | 163 | 0.0 | 1.0 | 0.00 | 0.01 | 0.00 | 87 | 1024.1 |
| 20260831101603 | 63 | 163 | 1.0 | 3.0 | 0.00 | 0.01 | 0.00 | 87 | 1024.2 |
| 20260831100057 | 63 | 204 | 0.0 | 1.0 | 0.00 | 0.01 | 0.00 | 87 | 1024.3 |
| 20260831094556 | 63 | 207 | 0.0 | 1.0 | 0.00 | 0.01 | 0.00 | 87 | 1024.3 |
| 20260831093057 | 63 | 213 | 0.0 | 2.0 | 0.00 | 0.01 | 0.00 | 87 | 1024.4 |
| 20260831091608 | 63 | 213 | 1.0 | 2.0 | 0.00 | 0.01 | 0.00 | 86 | 1024.5 |
| 20260831084553 | 63 | 196 | 1.0 | 3.0 | 0.00 | 0.01 | 0.00 | 85 | 1023.9 |
| 20260831083052 | 63 | 192 | 1.0 | 2.0 | 0.00 | 0.01 | 0.00 | 84 | 1024.2 |
| 20260831081551 | 64 | 200 | 0.0 | 0.0 | 0.00 | 0.01 | 0.00 | 84 | 1024.0 |
| 20260831074547 | 65 | 197 | 0.0 | 2.0 | 0.00 | 0.01 | 0.00 | 83 | 1024.0 |
| 20260831073046 | 65 | 209 | 1.0 | 3.0 | 0.00 | 0.01 | 0.00 | 83 | 1024.1 |
| 20260831071543 | 66 | 215 | 0.0 | 2.0 | 0.00 | 0.01 | 0.00 | 82 | 1023.8 |
| 20260831070042 | 66 | 215 | 0.0 | 1.0 | 0.00 | 0.01 | 0.00 | 82 | 1024.0 |
| 20260831064542 | 67 | 215 | 0.0 | 1.0 | 0.00 | 0.01 | 0.00 | 82 | 1023.9 |
| 20260831063039 | 67 | 217 | 0.0 | 2.0 | 0.00 | 0.01 | 0.00 | 82 | 1024.0 |
| 20260831061538 | 67 | 217 | 0.0 | 4.0 | 0.00 | 0.01 | 0.00 | 82 | 1024.3 |
| 20260831060041 | 67 | 213 | 3.0 | 5.0 | 0.00 | 0.01 | 0.00 | 81 | 1024.5 |
| 20260831054536 | 67 | 273 | 1.0 | 3.0 | 0.00 | 0.01 | 0.00 | 81 | 1024.5 |
| 20260831053035 | 67 | 273 | 0.0 | 2.0 | 0.00 | 0.01 | 0.00 | 80 | 1024.6 |
| 20260831051535 | 67 | 273 | 1.0 | 3.0 | 0.00 | 0.01 | 0.00 | 80 | 1024.6 |
| 20260831050033 | 67 | 273 | 1.0 | 3.0 | 0.00 | 0.01 | 0.00 | 80 | 1024.5 |